LAGEOS 2

Last updated on Thu Nov 21 2024 00:03:28 GMT+0000 (Coordinated Universal Time)

1 22195U 92070B 24325.54516472 -.00000009 00000+0 00000+0 0 9995 2 22195 52.6555 269.1888 0137373 296.1048 208.9276 6.47293744758285
UTC large
Height (km)
Speed (km/s)
/
Latitude / Longitude
Inclination (degrees)
Orbital Period (minutes)
Azimuth
Elevation
Range (km)
Doppler Factor

Next 0 passes for location: London (51.5072 / 0.1276)

Sorry there are no passes over London.